owner,sensor,date,latitude,longitude,vertical_datum,sea_water_practical_salinity,qcFlag 
SCCF RECON,ioos:station:SCCF:12:1,2012-08-01T00:00:00Z,26.4966,-82.1479,1.77,31.08,1111122 
SCCF RECON,ioos:station:SCCF:12:1,2012-08-01T01:00:00Z,26.4966,-82.1479,1.828,31.06,1111122 
SCCF RECON,ioos:station:SCCF:12:1,2012-08-01T02:00:00Z,26.4966,-82.1479,1.99,30.98,1111122 
SCCF RECON,ioos:station:SCCF:12:1,2012-08-01T03:00:00Z,26.4966,-82.1479,2.12,31.11,1111122 
SCCF RECON,ioos:station:SCCF:12:1,2012-08-01T04:00:00Z,26.4966,-82.1479,2.25,31.11,1111122 
SCCF RECON,ioos:station:SCCF:12:1,2012-08-01T05:00:00Z,26.4966,-82.1479,2.37,30.94,1111122 
SCCF RECON,ioos:station:SCCF:12:1,2012-08-01T06:00:00Z,26.4966,-82.1479,2.43,30.97,1111122 
SCCF RECON,ioos:station:SCCF:12:1,2012-08-01T07:00:00Z,26.4966,-82.1479,2.414,30.77,1111122 
SCCF RECON,ioos:station:SCCF:12:1,2012-08-01T08:00:00Z,26.4966,-82.1479,2.33,30.55,1111122 
SCCF RECON,ioos:station:SCCF:12:1,2012-08-01T09:00:00Z,26.4966,-82.1479,2.23,30.57,1111122 
SCCF RECON,ioos:station:SCCF:12:1,2012-08-01T10:00:00Z,26.4966,-82.1479,2.19,30.65,1111122 
SCCF RECON,ioos:station:SCCF:12:1,2012-08-01T11:00:00Z,26.4966,-82.1479,2.18,30.64,1111122 
SCCF RECON,ioos:station:SCCF:12:1,2012-08-01T12:00:00Z,26.4966,-82.1479,2.243,30.59,1111122 
SCCF RECON,ioos:station:SCCF:12:1,2012-08-01T13:00:00Z,26.4966,-82.1479,2.377,30.59,1111122 
SCCF RECON,ioos:station:SCCF:12:1,2012-08-01T14:00:00Z,26.4966,-82.1479,2.53,30.68,1111122 
SCCF RECON,ioos:station:SCCF:12:1,2012-08-01T15:00:00Z,26.4966,-82.1479,2.65,30.78,1111122 
SCCF RECON,ioos:station:SCCF:12:1,2012-08-01T16:00:00Z,26.4966,-82.1479,2.73,30.78,1111122 
SCCF RECON,ioos:station:SCCF:12:1,2012-08-01T17:00:00Z,26.4966,-82.1479,2.74,30.8,1111122 
SCCF RECON,ioos:station:SCCF:12:1,2012-08-01T18:00:00Z,26.4966,-82.1479,2.67,30.74,1111122 
SCCF RECON,ioos:station:SCCF:12:1,2012-08-01T19:00:00Z,26.4966,-82.1479,2.548,30.67,1111122 
SCCF RECON,ioos:station:SCCF:12:1,2012-08-01T20:00:00Z,26.4966,-82.1479,2.39,30.62,1111122 
SCCF RECON,ioos:station:SCCF:12:1,2012-08-01T21:00:00Z,26.4966,-82.1479,2.24,30.6,1111122 
SCCF RECON,ioos:station:SCCF:12:1,2012-08-01T22:00:00Z,26.4966,-82.1479,2.09,30.63,1111122 
SCCF RECON,ioos:station:SCCF:12:1,2012-08-01T23:00:00Z,26.4966,-82.1479,1.96,30.67,1111122 
SCCF RECON,ioos:station:SCCF:12:1,2012-08-02T00:00:00Z,26.4966,-82.1479,1.852,30.82,1111122 
SCCF RECON,ioos:station:SCCF:12:1,2012-08-02T01:00:00Z,26.4966,-82.1479,1.81,30.91,1111122 
SCCF RECON,ioos:station:SCCF:12:1,2012-08-02T02:00:00Z,26.4966,-82.1479,1.881,30.94,1111122 
SCCF RECON,ioos:station:SCCF:12:1,2012-08-02T03:00:00Z,26.4966,-82.1479,2.071,30.98,1111122 
SCCF RECON,ioos:station:SCCF:12:1,2012-08-02T04:00:00Z,26.4966,-82.1479,2.231,31.01,1111122 
SCCF RECON,ioos:station:SCCF:12:1,2012-08-02T05:00:00Z,26.4966,-82.1479,2.36,30.92,1111122 
SCCF RECON,ioos:station:SCCF:12:1,2012-08-02T06:00:00Z,26.4966,-82.1479,2.44,30.94,1111122 
SCCF RECON,ioos:station:SCCF:12:1,2012-08-02T07:00:00Z,26.4966,-82.1479,2.43,30.91,1111122 
SCCF RECON,ioos:station:SCCF:12:1,2012-08-02T08:00:00Z,26.4966,-82.1479,2.34,30.7,1111122 
SCCF RECON,ioos:station:SCCF:12:1,2012-08-02T09:00:00Z,26.4966,-82.1479,2.231,30.69,1111122 
SCCF RECON,ioos:station:SCCF:12:1,2012-08-02T10:00:00Z,26.4966,-82.1479,2.16,30.63,1111122 
SCCF RECON,ioos:station:SCCF:12:1,2012-08-02T11:00:00Z,26.4966,-82.1479,2.12,30.62,1111122 
SCCF RECON,ioos:station:SCCF:12:1,2012-08-02T12:00:00Z,26.4966,-82.1479,2.13,30.58,1111122 
SCCF RECON,ioos:station:SCCF:12:1,2012-08-02T13:00:00Z,26.4966,-82.1479,2.2,30.85,1111122 
SCCF RECON,ioos:station:SCCF:12:1,2012-08-02T14:00:00Z,26.4966,-82.1479,2.344,30.87,1111122 
SCCF RECON,ioos:station:SCCF:12:1,2012-08-02T15:00:00Z,26.4966,-82.1479,2.511,30.89,1111122 
SCCF RECON,ioos:station:SCCF:12:1,2012-08-02T16:00:00Z,26.4966,-82.1479,2.63,30.93,1111122 
SCCF RECON,ioos:station:SCCF:12:1,2012-08-02T17:00:00Z,26.4966,-82.1479,2.68,30.95,1111122 
SCCF RECON,ioos:station:SCCF:12:1,2012-08-02T18:00:00Z,26.4966,-82.1479,2.67,30.85,1111122 
SCCF RECON,ioos:station:SCCF:12:1,2012-08-02T19:00:00Z,26.4966,-82.1479,2.599,30.88,1111122 
SCCF RECON,ioos:station:SCCF:12:1,2012-08-02T20:00:00Z,26.4966,-82.1479,2.482,30.69,1111122 
SCCF RECON,ioos:station:SCCF:12:1,2012-08-02T21:00:00Z,26.4966,-82.1479,2.334,30.64,1111122 
SCCF RECON,ioos:station:SCCF:12:1,2012-08-02T22:00:00Z,26.4966,-82.1479,2.185,30.62,1111122 
SCCF RECON,ioos:station:SCCF:12:1,2012-08-02T23:00:00Z,26.4966,-82.1479,2.051,30.64,1111122 
SCCF RECON,ioos:station:SCCF:12:1,2012-08-03T00:00:00Z,26.4966,-82.1479,1.94,30.66,1111122 
SCCF RECON,ioos:station:SCCF:12:1,2012-08-03T01:00:00Z,26.4966,-82.1479,1.87,30.79,1111122 
SCCF RECON,ioos:station:SCCF:12:1,2012-08-03T02:00:00Z,26.4966,-82.1479,1.87,30.93,1111122 
SCCF RECON,ioos:station:SCCF:12:1,2012-08-03T03:00:00Z,26.4966,-82.1479,2.01,30.98,1111122 
SCCF RECON,ioos:station:SCCF:12:1,2012-08-03T04:00:00Z,26.4966,-82.1479,2.184,31.11,1111122 
SCCF RECON,ioos:station:SCCF:12:1,2012-08-03T05:00:00Z,26.4966,-82.1479,2.3,31.1,1111122 
SCCF RECON,ioos:station:SCCF:12:1,2012-08-03T06:00:00Z,26.4966,-82.1479,2.39,30.94,1111122 
SCCF RECON,ioos:station:SCCF:12:1,2012-08-03T07:00:00Z,26.4966,-82.1479,2.42,30.96,1111122 
SCCF RECON,ioos:station:SCCF:12:1,2012-08-03T08:00:00Z,26.4966,-82.1479,2.38,30.77,1111122 
SCCF RECON,ioos:station:SCCF:12:1,2012-08-03T09:00:00Z,26.4966,-82.1479,2.3,30.56,1111122 
SCCF RECON,ioos:station:SCCF:12:1,2012-08-03T10:00:00Z,26.4966,-82.1479,2.22,30.65,1111122 
SCCF RECON,ioos:station:SCCF:12:1,2012-08-03T11:00:00Z,26.4966,-82.1479,2.14,30.61,1111122 
SCCF RECON,ioos:station:SCCF:12:1,2012-08-03T12:00:00Z,26.4966,-82.1479,2.09,30.61,1111122 
SCCF RECON,ioos:station:SCCF:12:1,2012-08-03T13:00:00Z,26.4966,-82.1479,2.099,30.63,1111122 
SCCF RECON,ioos:station:SCCF:12:1,2012-08-03T14:00:00Z,26.4966,-82.1479,2.189,30.76,1111122 
SCCF RECON,ioos:station:SCCF:12:1,2012-08-03T15:00:00Z,26.4966,-82.1479,2.331,30.84,1111122 
SCCF RECON,ioos:station:SCCF:12:1,2012-08-03T16:00:00Z,26.4966,-82.1479,2.479,30.86,1111122 
SCCF RECON,ioos:station:SCCF:12:1,2012-08-03T17:00:00Z,26.4966,-82.1479,2.59,30.84,1111122 
SCCF RECON,ioos:station:SCCF:12:1,2012-08-03T18:00:00Z,26.4966,-82.1479,2.64,30.79,1111122 
SCCF RECON,ioos:station:SCCF:12:1,2012-08-03T19:00:00Z,26.4966,-82.1479,2.621,30.94,1111122 
SCCF RECON,ioos:station:SCCF:12:1,2012-08-03T20:00:00Z,26.4966,-82.1479,2.54,30.88,1111122 
SCCF RECON,ioos:station:SCCF:12:1,2012-08-03T21:00:00Z,26.4966,-82.1479,2.417,30.83,1111122 
SCCF RECON,ioos:station:SCCF:12:1,2012-08-03T22:00:00Z,26.4966,-82.1479,2.3,30.71,1111122 
SCCF RECON,ioos:station:SCCF:12:1,2012-08-03T23:00:00Z,26.4966,-82.1479,2.179,30.75,1111122 
SCCF RECON,ioos:station:SCCF:12:1,2012-08-04T00:00:00Z,26.4966,-82.1479,2.055,30.75,1111122 
SCCF RECON,ioos:station:SCCF:12:1,2012-08-04T01:00:00Z,26.4966,-82.1479,1.95,30.77,1111122 
SCCF RECON,ioos:station:SCCF:12:1,2012-08-04T02:00:00Z,26.4966,-82.1479,1.89,30.77,1111122 
SCCF RECON,ioos:station:SCCF:12:1,2012-08-04T03:00:00Z,26.4966,-82.1479,1.936,30.84,1111122 
SCCF RECON,ioos:station:SCCF:12:1,2012-08-04T04:00:00Z,26.4966,-82.1479,2.081,30.84,1111122 
SCCF RECON,ioos:station:SCCF:12:1,2012-08-04T05:00:00Z,26.4966,-82.1479,2.25,30.84,1111122 
SCCF RECON,ioos:station:SCCF:12:1,2012-08-04T06:00:00Z,26.4966,-82.1479,2.369,30.81,1111122 
SCCF RECON,ioos:station:SCCF:12:1,2012-08-04T07:00:00Z,26.4966,-82.1479,2.43,30.82,1111122 
SCCF RECON,ioos:station:SCCF:12:1,2012-08-04T08:00:00Z,26.4966,-82.1479,2.44,30.81,1111122 
SCCF RECON,ioos:station:SCCF:12:1,2012-08-04T09:00:00Z,26.4966,-82.1479,2.39,30.97,1111122 
SCCF RECON,ioos:station:SCCF:12:1,2012-08-04T10:00:00Z,26.4966,-82.1479,2.286,30.67,1111122 
SCCF RECON,ioos:station:SCCF:12:1,2012-08-04T11:00:00Z,26.4966,-82.1479,2.18,30.67,1111122 
SCCF RECON,ioos:station:SCCF:12:1,2012-08-04T12:00:00Z,26.4966,-82.1479,2.109,30.73,1111122 
SCCF RECON,ioos:station:SCCF:12:1,2012-08-04T13:00:00Z,26.4966,-82.1479,2.07,30.8,1111122 
SCCF RECON,ioos:station:SCCF:12:1,2012-08-04T14:00:00Z,26.4966,-82.1479,2.11,30.74,1111122 
SCCF RECON,ioos:station:SCCF:12:1,2012-08-04T15:00:00Z,26.4966,-82.1479,2.208,30.93,1111122 
SCCF RECON,ioos:station:SCCF:12:1,2012-08-04T16:00:00Z,26.4966,-82.1479,2.344,30.87,1111122 
SCCF RECON,ioos:station:SCCF:12:1,2012-08-04T17:00:00Z,26.4966,-82.1479,2.479,30.88,1111122 
SCCF RECON,ioos:station:SCCF:12:1,2012-08-04T18:00:00Z,26.4966,-82.1479,2.574,30.97,1111122 
SCCF RECON,ioos:station:SCCF:12:1,2012-08-04T19:00:00Z,26.4966,-82.1479,2.608,31.04,1111122 
SCCF RECON,ioos:station:SCCF:12:1,2012-08-04T20:00:00Z,26.4966,-82.1479,2.587,30.92,1111122 
SCCF RECON,ioos:station:SCCF:12:1,2012-08-04T21:00:00Z,26.4966,-82.1479,2.5,30.88,1111122 
SCCF RECON,ioos:station:SCCF:12:1,2012-08-04T22:00:00Z,26.4966,-82.1479,2.377,30.86,1111122 
SCCF RECON,ioos:station:SCCF:12:1,2012-08-04T23:00:00Z,26.4966,-82.1479,2.247,30.86,1111122 
SCCF RECON,ioos:station:SCCF:12:1,2012-08-05T00:00:00Z,26.4966,-82.1479,2.147,30.86,1111122 
SCCF RECON,ioos:station:SCCF:12:1,2012-08-05T01:00:00Z,26.4966,-82.1479,2.053,30.89,1111122 
SCCF RECON,ioos:station:SCCF:12:1,2012-08-05T02:00:00Z,26.4966,-82.1479,2.024,30.96,1111122 
SCCF RECON,ioos:station:SCCF:12:1,2012-08-05T03:00:00Z,26.4966,-82.1479,2.0,30.99,1111122 
SCCF RECON,ioos:station:SCCF:12:1,2012-08-05T04:00:00Z,26.4966,-82.1479,2.08,30.97,1111122 
SCCF RECON,ioos:station:SCCF:12:1,2012-08-05T05:00:00Z,26.4966,-82.1479,2.234,30.9,1111122 
SCCF RECON,ioos:station:SCCF:12:1,2012-08-05T06:00:00Z,26.4966,-82.1479,2.36,30.93,1111122 
SCCF RECON,ioos:station:SCCF:12:1,2012-08-05T07:00:00Z,26.4966,-82.1479,2.44,30.88,1111122 
SCCF RECON,ioos:station:SCCF:12:1,2012-08-05T08:00:00Z,26.4966,-82.1479,2.47,30.95,1111122 
SCCF RECON,ioos:station:SCCF:12:1,2012-08-05T09:00:00Z,26.4966,-82.1479,2.439,30.99,1111122 
SCCF RECON,ioos:station:SCCF:12:1,2012-08-05T10:00:00Z,26.4966,-82.1479,2.37,30.83,1111122 
SCCF RECON,ioos:station:SCCF:12:1,2012-08-05T11:00:00Z,26.4966,-82.1479,2.3,30.85,1111122 
SCCF RECON,ioos:station:SCCF:12:1,2012-08-05T12:00:00Z,26.4966,-82.1479,2.201,30.83,1111122 
SCCF RECON,ioos:station:SCCF:12:1,2012-08-05T13:00:00Z,26.4966,-82.1479,2.105,30.86,1111122 
SCCF RECON,ioos:station:SCCF:12:1,2012-08-05T14:00:00Z,26.4966,-82.1479,2.037,30.85,1111122 
SCCF RECON,ioos:station:SCCF:12:1,2012-08-05T15:00:00Z,26.4966,-82.1479,2.06,30.79,1111122 
SCCF RECON,ioos:station:SCCF:12:1,2012-08-05T16:00:00Z,26.4966,-82.1479,2.17,30.91,1111122 
SCCF RECON,ioos:station:SCCF:12:1,2012-08-05T17:00:00Z,26.4966,-82.1479,2.312,30.88,1111122 
SCCF RECON,ioos:station:SCCF:12:1,2012-08-05T18:00:00Z,26.4966,-82.1479,2.433,30.84,1111122 
SCCF RECON,ioos:station:SCCF:12:1,2012-08-05T19:00:00Z,26.4966,-82.1479,2.514,30.76,1111122 
SCCF RECON,ioos:station:SCCF:12:1,2012-08-05T20:00:00Z,26.4966,-82.1479,2.522,30.9,1111122 
SCCF RECON,ioos:station:SCCF:12:1,2012-08-05T21:00:00Z,26.4966,-82.1479,2.48,30.95,1111122 
SCCF RECON,ioos:station:SCCF:12:1,2012-08-05T22:00:00Z,26.4966,-82.1479,2.418,30.84,1111122 
SCCF RECON,ioos:station:SCCF:12:1,2012-08-05T23:00:00Z,26.4966,-82.1479,2.31,30.86,1111122 
SCCF RECON,ioos:station:SCCF:12:1,2012-08-06T00:00:00Z,26.4966,-82.1479,2.19,30.84,1111122 
SCCF RECON,ioos:station:SCCF:12:1,2012-08-06T01:00:00Z,26.4966,-82.1479,2.108,30.86,1111122 
SCCF RECON,ioos:station:SCCF:12:1,2012-08-06T02:00:00Z,26.4966,-82.1479,2.029,30.88,1111122 
SCCF RECON,ioos:station:SCCF:12:1,2012-08-06T03:00:00Z,26.4966,-82.1479,1.99,30.85,1111122 
SCCF RECON,ioos:station:SCCF:12:1,2012-08-06T04:00:00Z,26.4966,-82.1479,2.04,30.86,1111122 
SCCF RECON,ioos:station:SCCF:12:1,2012-08-06T05:00:00Z,26.4966,-82.1479,2.18,30.88,1111122 
SCCF RECON,ioos:station:SCCF:12:1,2012-08-06T06:00:00Z,26.4966,-82.1479,2.32,30.93,1111122 
SCCF RECON,ioos:station:SCCF:12:1,2012-08-06T07:00:00Z,26.4966,-82.1479,2.41,30.87,1111122 
SCCF RECON,ioos:station:SCCF:12:1,2012-08-06T08:00:00Z,26.4966,-82.1479,2.45,30.77,1111122 
SCCF RECON,ioos:station:SCCF:12:1,2012-08-06T09:00:00Z,26.4966,-82.1479,2.42,30.77,1111122 
SCCF RECON,ioos:station:SCCF:12:1,2012-08-06T10:00:00Z,26.4966,-82.1479,2.37,30.88,1111122 
SCCF RECON,ioos:station:SCCF:12:1,2012-08-06T11:00:00Z,26.4966,-82.1479,2.26,30.94,1111122 
SCCF RECON,ioos:station:SCCF:12:1,2012-08-06T12:00:00Z,26.4966,-82.1479,2.198,30.78,1111122 
SCCF RECON,ioos:station:SCCF:12:1,2012-08-06T13:00:00Z,26.4966,-82.1479,2.135,30.76,1111122 
SCCF RECON,ioos:station:SCCF:12:1,2012-08-06T14:00:00Z,26.4966,-82.1479,2.055,30.8,1111122 
SCCF RECON,ioos:station:SCCF:12:1,2012-08-06T15:00:00Z,26.4966,-82.1479,2.004,30.82,1111122 
SCCF RECON,ioos:station:SCCF:12:1,2012-08-06T16:00:00Z,26.4966,-82.1479,2.031,30.97,1111122 
SCCF RECON,ioos:station:SCCF:12:1,2012-08-06T17:00:00Z,26.4966,-82.1479,2.149,30.96,1111122 
SCCF RECON,ioos:station:SCCF:12:1,2012-08-06T18:00:00Z,26.4966,-82.1479,2.28,30.93,1111122 
SCCF RECON,ioos:station:SCCF:12:1,2012-08-06T19:00:00Z,26.4966,-82.1479,2.388,30.9,1111122 
SCCF RECON,ioos:station:SCCF:12:1,2012-08-06T20:00:00Z,26.4966,-82.1479,2.458,30.83,1111122 
SCCF RECON,ioos:station:SCCF:12:1,2012-08-06T21:00:00Z,26.4966,-82.1479,2.49,30.72,1111122 
SCCF RECON,ioos:station:SCCF:12:1,2012-08-06T22:00:00Z,26.4966,-82.1479,2.502,30.6,1111122 
SCCF RECON,ioos:station:SCCF:12:1,2012-08-06T23:00:00Z,26.4966,-82.1479,2.36,30.37,1111122 
SCCF RECON,ioos:station:SCCF:12:1,2012-08-07T00:00:00Z,26.4966,-82.1479,2.264,30.37,1111122 
SCCF RECON,ioos:station:SCCF:12:1,2012-08-07T01:00:00Z,26.4966,-82.1479,2.2,30.32,1111122 
SCCF RECON,ioos:station:SCCF:12:1,2012-08-07T02:00:00Z,26.4966,-82.1479,2.14,30.41,1111122 
SCCF RECON,ioos:station:SCCF:12:1,2012-08-07T03:00:00Z,26.4966,-82.1479,2.116,30.36,1111122 
SCCF RECON,ioos:station:SCCF:12:1,2012-08-07T04:00:00Z,26.4966,-82.1479,2.13,30.3,1111122 
SCCF RECON,ioos:station:SCCF:12:1,2012-08-07T05:00:00Z,26.4966,-82.1479,2.188,30.27,1111122 
SCCF RECON,ioos:station:SCCF:12:1,2012-08-07T06:00:00Z,26.4966,-82.1479,2.299,30.36,1111122 
SCCF RECON,ioos:station:SCCF:12:1,2012-08-07T07:00:00Z,26.4966,-82.1479,2.43,30.35,1111122 
SCCF RECON,ioos:station:SCCF:12:1,2012-08-07T08:00:00Z,26.4966,-82.1479,2.495,30.36,1111122 
SCCF RECON,ioos:station:SCCF:12:1,2012-08-07T09:00:00Z,26.4966,-82.1479,2.53,30.36,1111122 
SCCF RECON,ioos:station:SCCF:12:1,2012-08-07T10:00:00Z,26.4966,-82.1479,2.499,30.25,1111122 
SCCF RECON,ioos:station:SCCF:12:1,2012-08-07T11:00:00Z,26.4966,-82.1479,2.42,30.4,1111122 
SCCF RECON,ioos:station:SCCF:12:1,2012-08-07T12:00:00Z,26.4966,-82.1479,2.31,30.41,1111122 
SCCF RECON,ioos:station:SCCF:12:1,2012-08-07T13:00:00Z,26.4966,-82.1479,2.2,30.5,1111122 
SCCF RECON,ioos:station:SCCF:12:1,2012-08-07T14:00:00Z,26.4966,-82.1479,2.114,30.5,1111122 
SCCF RECON,ioos:station:SCCF:12:1,2012-08-07T15:00:00Z,26.4966,-82.1479,2.057,30.48,1111122 
SCCF RECON,ioos:station:SCCF:12:1,2012-08-07T16:00:00Z,26.4966,-82.1479,2.023,30.45,1111122 
SCCF RECON,ioos:station:SCCF:12:1,2012-08-07T17:00:00Z,26.4966,-82.1479,2.07,30.5,1111122 
SCCF RECON,ioos:station:SCCF:12:1,2012-08-07T18:00:00Z,26.4966,-82.1479,2.172,30.52,1111122 
SCCF RECON,ioos:station:SCCF:12:1,2012-08-07T19:00:00Z,26.4966,-82.1479,2.27,30.49,1111122 
SCCF RECON,ioos:station:SCCF:12:1,2012-08-07T20:00:00Z,26.4966,-82.1479,2.34,30.41,1111122 
SCCF RECON,ioos:station:SCCF:12:1,2012-08-07T21:00:00Z,26.4966,-82.1479,2.37,30.43,1111122 
SCCF RECON,ioos:station:SCCF:12:1,2012-08-07T22:00:00Z,26.4966,-82.1479,2.361,30.46,1111122 
SCCF RECON,ioos:station:SCCF:12:1,2012-08-07T23:00:00Z,26.4966,-82.1479,2.32,30.4,1111122 
SCCF RECON,ioos:station:SCCF:12:1,2012-08-08T00:00:00Z,26.4966,-82.1479,2.32,30.4,1111122 
SCCF RECON,ioos:station:SCCF:12:1,2012-08-08T01:00:00Z,26.4966,-82.1479,2.3,30.4,1111122 
SCCF RECON,ioos:station:SCCF:12:1,2012-08-08T02:00:00Z,26.4966,-82.1479,2.26,30.39,1111122 
SCCF RECON,ioos:station:SCCF:12:1,2012-08-08T03:00:00Z,26.4966,-82.1479,2.2,30.43,1111122 
SCCF RECON,ioos:station:SCCF:12:1,2012-08-08T04:00:00Z,26.4966,-82.1479,2.18,30.47,1111122 
SCCF RECON,ioos:station:SCCF:12:1,2012-08-08T05:00:00Z,26.4966,-82.1479,2.231,30.41,1111122 
SCCF RECON,ioos:station:SCCF:12:1,2012-08-08T06:00:00Z,26.4966,-82.1479,2.32,30.39,1111122 
SCCF RECON,ioos:station:SCCF:12:1,2012-08-08T07:00:00Z,26.4966,-82.1479,2.43,30.39,1111122 
SCCF RECON,ioos:station:SCCF:12:1,2012-08-08T08:00:00Z,26.4966,-82.1479,2.51,30.41,1111122 
SCCF RECON,ioos:station:SCCF:12:1,2012-08-08T09:00:00Z,26.4966,-82.1479,2.54,30.46,1111122 
SCCF RECON,ioos:station:SCCF:12:1,2012-08-08T10:00:00Z,26.4966,-82.1479,2.52,30.42,1111122 
SCCF RECON,ioos:station:SCCF:12:1,2012-08-08T11:00:00Z,26.4966,-82.1479,2.48,30.51,1111122 
SCCF RECON,ioos:station:SCCF:12:1,2012-08-08T12:00:00Z,26.4966,-82.1479,2.43,30.53,1111122 
SCCF RECON,ioos:station:SCCF:12:1,2012-08-08T13:00:00Z,26.4966,-82.1479,2.354,30.49,1111122 
SCCF RECON,ioos:station:SCCF:12:1,2012-08-08T14:00:00Z,26.4966,-82.1479,2.268,30.42,1111122 
SCCF RECON,ioos:station:SCCF:12:1,2012-08-08T15:00:00Z,26.4966,-82.1479,2.17,30.41,1111122 
SCCF RECON,ioos:station:SCCF:12:1,2012-08-08T16:00:00Z,26.4966,-82.1479,2.098,30.45,1111122 
SCCF RECON,ioos:station:SCCF:12:1,2012-08-08T17:00:00Z,26.4966,-82.1479,2.051,30.46,1111122 
SCCF RECON,ioos:station:SCCF:12:1,2012-08-08T18:00:00Z,26.4966,-82.1479,2.071,30.51,1111122 
SCCF RECON,ioos:station:SCCF:12:1,2012-08-08T19:00:00Z,26.4966,-82.1479,2.163,30.5,1111122 
SCCF RECON,ioos:station:SCCF:12:1,2012-08-08T20:00:00Z,26.4966,-82.1479,2.26,30.49,1111122 
SCCF RECON,ioos:station:SCCF:12:1,2012-08-08T21:00:00Z,26.4966,-82.1479,2.33,30.49,1111122 
SCCF RECON,ioos:station:SCCF:12:1,2012-08-08T22:00:00Z,26.4966,-82.1479,2.33,30.5,1111122 
SCCF RECON,ioos:station:SCCF:12:1,2012-08-08T23:00:00Z,26.4966,-82.1479,2.308,30.5,1111122 
SCCF RECON,ioos:station:SCCF:12:1,2012-08-09T00:00:00Z,26.4966,-82.1479,2.29,30.51,1111122 
SCCF RECON,ioos:station:SCCF:12:1,2012-08-09T01:00:00Z,26.4966,-82.1479,2.286,30.51,1111122 
SCCF RECON,ioos:station:SCCF:12:1,2012-08-09T02:00:00Z,26.4966,-82.1479,2.271,30.5,1111122 
SCCF RECON,ioos:station:SCCF:12:1,2012-08-09T03:00:00Z,26.4966,-82.1479,2.231,30.52,1111122 
SCCF RECON,ioos:station:SCCF:12:1,2012-08-09T04:00:00Z,26.4966,-82.1479,2.19,30.52,1111122 
SCCF RECON,ioos:station:SCCF:12:1,2012-08-09T05:00:00Z,26.4966,-82.1479,2.19,30.51,1111122 
SCCF RECON,ioos:station:SCCF:12:1,2012-08-09T06:00:00Z,26.4966,-82.1479,2.21,30.51,1111122 
SCCF RECON,ioos:station:SCCF:12:1,2012-08-09T07:00:00Z,26.4966,-82.1479,2.252,30.53,1111122 
SCCF RECON,ioos:station:SCCF:12:1,2012-08-09T08:00:00Z,26.4966,-82.1479,2.34,30.55,1111122 
SCCF RECON,ioos:station:SCCF:12:1,2012-08-09T09:00:00Z,26.4966,-82.1479,2.43,30.59,1111122 
SCCF RECON,ioos:station:SCCF:12:1,2012-08-09T10:00:00Z,26.4966,-82.1479,2.48,30.59,1111122 
SCCF RECON,ioos:station:SCCF:12:1,2012-08-09T11:00:00Z,26.4966,-82.1479,2.5,30.56,1111122 
SCCF RECON,ioos:station:SCCF:12:1,2012-08-09T12:00:00Z,26.4966,-82.1479,2.44,30.53,1111122 
SCCF RECON,ioos:station:SCCF:12:1,2012-08-09T13:00:00Z,26.4966,-82.1479,2.356,30.53,1111122 
SCCF RECON,ioos:station:SCCF:12:1,2012-08-09T14:00:00Z,26.4966,-82.1479,2.255,30.53,1111122 
SCCF RECON,ioos:station:SCCF:12:1,2012-08-09T15:00:00Z,26.4966,-82.1479,2.153,30.54,1111122 
SCCF RECON,ioos:station:SCCF:12:1,2012-08-09T16:00:00Z,26.4966,-82.1479,2.084,30.55,1111122 
SCCF RECON,ioos:station:SCCF:12:1,2012-08-09T17:00:00Z,26.4966,-82.1479,2.04,30.54,1111122 
SCCF RECON,ioos:station:SCCF:12:1,2012-08-09T18:00:00Z,26.4966,-82.1479,2.0,30.55,1111122 
SCCF RECON,ioos:station:SCCF:12:1,2012-08-09T19:00:00Z,26.4966,-82.1479,1.986,30.56,1111122 
SCCF RECON,ioos:station:SCCF:12:1,2012-08-09T20:00:00Z,26.4966,-82.1479,2.041,30.57,1111122 
SCCF RECON,ioos:station:SCCF:12:1,2012-08-09T21:00:00Z,26.4966,-82.1479,2.124,30.6,1111122 
SCCF RECON,ioos:station:SCCF:12:1,2012-08-09T22:00:00Z,26.4966,-82.1479,2.204,30.63,1111122 
SCCF RECON,ioos:station:SCCF:12:1,2012-08-09T23:00:00Z,26.4966,-82.1479,2.27,30.77,1111122 
SCCF RECON,ioos:station:SCCF:12:1,2012-08-10T00:00:00Z,26.4966,-82.1479,2.319,30.75,1111122 
SCCF RECON,ioos:station:SCCF:12:1,2012-08-10T01:00:00Z,26.4966,-82.1479,2.34,30.67,1111122 
SCCF RECON,ioos:station:SCCF:12:1,2012-08-10T02:00:00Z,26.4966,-82.1479,2.31,30.58,1111122 
SCCF RECON,ioos:station:SCCF:12:1,2012-08-10T03:00:00Z,26.4966,-82.1479,2.282,30.57,1111122 
SCCF RECON,ioos:station:SCCF:12:1,2012-08-10T04:00:00Z,26.4966,-82.1479,2.34,30.62,1111122 
SCCF RECON,ioos:station:SCCF:12:1,2012-08-10T05:00:00Z,26.4966,-82.1479,2.26,30.58,1111122 
SCCF RECON,ioos:station:SCCF:12:1,2012-08-10T06:00:00Z,26.4966,-82.1479,2.24,30.58,1111122 
SCCF RECON,ioos:station:SCCF:12:1,2012-08-10T07:00:00Z,26.4966,-82.1479,2.28,30.58,1111122 
SCCF RECON,ioos:station:SCCF:12:1,2012-08-10T08:00:00Z,26.4966,-82.1479,2.35,30.6,1111122 
SCCF RECON,ioos:station:SCCF:12:1,2012-08-10T09:00:00Z,26.4966,-82.1479,2.43,30.58,1111122 
SCCF RECON,ioos:station:SCCF:12:1,2012-08-10T10:00:00Z,26.4966,-82.1479,2.51,30.57,1111122 
SCCF RECON,ioos:station:SCCF:12:1,2012-08-10T11:00:00Z,26.4966,-82.1479,2.568,30.57,1111122 
SCCF RECON,ioos:station:SCCF:12:1,2012-08-10T12:00:00Z,26.4966,-82.1479,2.539,30.59,1111122 
SCCF RECON,ioos:station:SCCF:12:1,2012-08-10T13:00:00Z,26.4966,-82.1479,2.47,30.6,1111122 
SCCF RECON,ioos:station:SCCF:12:1,2012-08-10T14:00:00Z,26.4966,-82.1479,2.391,30.63,1111122 
SCCF RECON,ioos:station:SCCF:12:1,2012-08-10T15:00:00Z,26.4966,-82.1479,2.329,30.64,1111122 
SCCF RECON,ioos:station:SCCF:12:1,2012-08-10T16:00:00Z,26.4966,-82.1479,2.24,30.66,1111122 
SCCF RECON,ioos:station:SCCF:12:1,2012-08-10T17:00:00Z,26.4966,-82.1479,2.14,30.66,1111122 
SCCF RECON,ioos:station:SCCF:12:1,2012-08-10T18:00:00Z,26.4966,-82.1479,2.042,30.7,1111122 
SCCF RECON,ioos:station:SCCF:12:1,2012-08-10T19:00:00Z,26.4966,-82.1479,1.98,30.68,1111122 
SCCF RECON,ioos:station:SCCF:12:1,2012-08-10T20:00:00Z,26.4966,-82.1479,1.97,30.66,1111122 
SCCF RECON,ioos:station:SCCF:12:1,2012-08-10T21:00:00Z,26.4966,-82.1479,2.03,30.65,1111122 
SCCF RECON,ioos:station:SCCF:12:1,2012-08-10T22:00:00Z,26.4966,-82.1479,2.154,30.64,1111122 
SCCF RECON,ioos:station:SCCF:12:1,2012-08-10T23:00:00Z,26.4966,-82.1479,2.22,30.64,1111122 
SCCF RECON,ioos:station:SCCF:12:1,2012-08-11T00:00:00Z,26.4966,-82.1479,2.328,30.62,1111122 
SCCF RECON,ioos:station:SCCF:12:1,2012-08-11T01:00:00Z,26.4966,-82.1479,2.239,30.64,1111122 
SCCF RECON,ioos:station:SCCF:12:1,2012-08-11T02:00:00Z,26.4966,-82.1479,2.23,30.61,1111122 
SCCF RECON,ioos:station:SCCF:12:1,2012-08-11T03:00:00Z,26.4966,-82.1479,2.28,30.63,1111122 
SCCF RECON,ioos:station:SCCF:12:1,2012-08-11T04:00:00Z,26.4966,-82.1479,2.31,30.62,1111122 
SCCF RECON,ioos:station:SCCF:12:1,2012-08-11T05:00:00Z,26.4966,-82.1479,2.29,30.63,1111122 
SCCF RECON,ioos:station:SCCF:12:1,2012-08-11T06:00:00Z,26.4966,-82.1479,2.25,30.58,1111122 
SCCF RECON,ioos:station:SCCF:12:1,2012-08-11T07:00:00Z,26.4966,-82.1479,2.27,30.54,1111122 
SCCF RECON,ioos:station:SCCF:12:1,2012-08-11T08:00:00Z,26.4966,-82.1479,2.34,30.55,1111122 
SCCF RECON,ioos:station:SCCF:12:1,2012-08-11T09:00:00Z,26.4966,-82.1479,2.43,30.59,1111122 
SCCF RECON,ioos:station:SCCF:12:1,2012-08-11T10:00:00Z,26.4966,-82.1479,2.479,30.58,1111122 
SCCF RECON,ioos:station:SCCF:12:1,2012-08-11T11:00:00Z,26.4966,-82.1479,2.489,30.57,1111122 
SCCF RECON,ioos:station:SCCF:12:1,2012-08-11T12:00:00Z,26.4966,-82.1479,2.493,30.54,1111122 
SCCF RECON,ioos:station:SCCF:12:1,2012-08-11T13:00:00Z,26.4966,-82.1479,2.517,30.5,1111122 
SCCF RECON,ioos:station:SCCF:12:1,2012-08-11T14:00:00Z,26.4966,-82.1479,2.475,30.43,1111122 
SCCF RECON,ioos:station:SCCF:12:1,2012-08-11T15:00:00Z,26.4966,-82.1479,2.41,30.47,1111122 
SCCF RECON,ioos:station:SCCF:12:1,2012-08-11T16:00:00Z,26.4966,-82.1479,2.33,30.45,1111122 
SCCF RECON,ioos:station:SCCF:12:1,2012-08-11T17:00:00Z,26.4966,-82.1479,2.23,30.44,1111122 
SCCF RECON,ioos:station:SCCF:12:1,2012-08-11T18:00:00Z,26.4966,-82.1479,2.127,30.43,1111122 